Location: Nitra
(48.3167°N, 18.0833°E)
Time: 01:16:47
(UTC+02:00)

ISS - Visible Passes

Search period start: 06 May 2021 00:00
Search period end: 16 May 2021 00:00
Orbit: 418 x 421 km, 51.6° (Epoch: 05 May)

Date Brightness Start Highest point End Pass type
(mag) Time Alt. Az. Time Alt. Az. Time Alt. Az.
06 May -3.9 02:48:19 78° W 02:48:31 86° NNW 02:51:55 10° ENE visible
06 May -2.7 04:22:18 10° WNW 04:25:34 45° N 04:28:51 10° ENE visible
07 May -2.4 02:02:24 34° E 02:02:24 34° E 02:04:29 10° ENE visible
07 May -2.9 03:35:20 14° W 03:38:03 48° N 03:41:22 10° ENE visible
08 May -1.1 01:16:28 14° ENE 01:16:28 14° ENE 01:17:00 10° ENE visible
08 May -3.1 02:49:24 34° WNW 02:50:33 54° NNW 02:53:53 10° ENE visible
08 May -2.8 04:24:23 10° WNW 04:27:41 49° N 04:31:00 10° E visible
09 May -3.3 02:03:25 60° NNE 02:03:25 60° NNE 02:06:27 10° ENE visible
09 May -2.7 03:36:54 10° WNW 03:40:10 46° N 03:43:27 10° ENE visible
10 May -1.9 01:17:25 25° ENE 01:17:25 25° ENE 01:18:59 10° ENE visible
10 May -2.7 02:50:21 17° WNW 02:52:38 45° N 02:55:56 10° ENE visible
10 May -3.4 04:26:21 10° WNW 04:29:44 72° NNE 04:33:07 10° ESE visible
11 May -0.9 00:31:23 11° ENE 00:31:23 11° ENE 00:31:32 10° ENE visible
11 May -2.8 02:04:19 38° NW 02:05:07 48° N 02:08:25 10° ENE visible
11 May -3.1 03:38:54 10° WNW 03:42:15 58° NNE 03:45:36 10° E visible
12 May -2.7 01:18:13 45° NNE 01:18:13 45° NNE 01:20:56 10° ENE visible
12 May -2.8 02:51:26 10° WNW 02:54:44 50° N 02:58:02 10° E visible
12 May -3.7 04:28:18 10° WNW 04:31:39 62° SSW 04:34:59 10° SE visible
13 May -1.7 00:32:03 23° ENE 00:32:03 23° ENE 00:33:28 10° ENE visible
13 May -2.7 02:04:58 18° WNW 02:07:12 46° N 02:10:29 10° ENE visible
13 May -3.8 03:40:50 10° WNW 03:44:13 86° SSW 03:47:36 10° ESE visible
13 May -1.1 23:45:40 12° ENE 23:45:40 12° ENE 23:46:01 10° ENE visible
14 May -2.7 01:18:33 32° NW 01:19:40 45° N 01:22:56 10° ENE visible
14 May -3.5 02:53:22 10° WNW 02:56:45 72° NNE 03:00:08 10° ESE visible
14 May -2.8 04:30:25 10° W 04:33:22 28° SW 04:36:19 10° SSE visible
14 May -2.0 21:16:57 10° S 21:18:51 14° SE 21:20:46 10° ESE visible
14 May -3.9 22:51:50 10° WSW 22:55:10 70° SSE 22:58:33 10° ENE visible
15 May -2.8 00:28:50 10° W 00:32:07 48° N 00:35:25 10° ENE visible
15 May -3.2 02:05:54 10° WNW 02:09:15 58° NNE 02:12:36 10° E visible
15 May -3.4 03:42:48 10° WNW 03:46:02 41° SSW 03:49:14 10° SE visible
15 May -3.6 22:04:31 10° SW 22:07:46 48° SSE 22:11:02 10° ENE visible
15 May -3.0 23:41:16 10° W 23:44:35 54° NNW 23:47:55 10° ENE visible
